Location: ????????
(38.4362°N, 22.8767°E)
Time: 14:59:11
(UTC+00:00)

S3M - Pass Details

Date: 23 April 2024
Orbit: 949 x 1003 km, 83.0° (Epoch: 18 May)

Event Time Altitude Azimuth Distance (km) Brightness Sun altitude
Rises 01:51:19 0° 352° (N) 3,656 7.4 -20.1°
Reaches altitude 10° 01:53:49 10° 353° (N) 2,713 6.7 -19.7°
Maximum altitude 02:00:03 87° 267° (W) 983 3.9 -18.7°
Drops below altitude 10° 02:06:20 10° 176° (S) 2,734 6.1 -17.7°
Sets 02:08:51 0° 176° (S) 3,686 6.7 -17.3°
